Weather History for Jefferson, NC

Change the Weather History Date:

Tuesday, January 7, 2014

  Actual Average Record
Temperature  
Mean Temperature 2 °F -  
Max Temperature 12 °F 43 °F 64 °F (2008)
Min Temperature -6 °F 25 °F -6 °F (2014)
Degree Days  
Heating Degree Days 62    
Moisture  
Dew Point -12 °F    
Average Humidity 52    
Maximum Humidity 63    
Minimum Humidity 37    
Precipitation  
Precipitation 0.00 in - - ()
Sea Level Pressure  
Sea Level Pressure 30.14 in    
Wind  
Wind Speed 12 mph (West)    
Max Wind Speed 23 mph    
Max Gust Speed 36 mph    
Visibility 9 miles    
Events      
Averages and records for this station are not official NWS values.
T = Trace of Precipitation, MM = Missing Value Source: NWS Daily Summary

Daily Weather History Graph

Daily Weather History Graph

Search for Another Location

Airport:

Trip Planner

Search our weather history database for the weather conditions in past years. The results will help you decide how hot, cold, wet, or windy it might be!

Date:

Astronomy

Jan. 07, 2014 Rise Set
Actual Time 7:37 AM EST 5:26 PM EST
Civil Twilight 7:09 AM EST 5:54 PM EST
Nautical Twilight 6:37 AM EST 6:26 PM EST
Astronomical Twilight 6:06 AM EST 6:58 PM EST
Moon 11:38 AM EST (1/7) No Moon Set
Length of Visible Light 10h 45m
Length of Day
9h 48m
Waxing Crescent, 45% of the Moon is Illuminated
Jan 7
Waxing Crescent
Jan 7
First Quarter
Jan 15
Full
Jan 24
Last Quarter
Jan 30
New

Hourly Weather History & Observations

Time (EST) Temp. Windchill Dew Point Humidity Pressure Visibility Wind Dir Wind Speed Gust Speed Precip Events Conditions
12:15 AM -4.5 °F -22.8 °F -15.0 °F 61% 29.95 in 10.0 mi WNW 11.5 mph 25.3 mph N/A   Overcast
12:35 AM -4.7 °F -24.7 °F -14.8 °F 62% 29.95 in 7.0 mi West 13.8 mph 24.2 mph N/A   Overcast
12:55 AM -4.9 °F -29.8 °F -15.7 °F 60% 29.96 in 7.0 mi West 23.0 mph 31.1 mph N/A   Overcast
1:15 AM -4.9 °F -24.9 °F -15.7 °F 60% 29.96 in 10.0 mi WNW 13.8 mph 27.6 mph N/A   Overcast
1:35 AM -4.9 °F -28.8 °F -14.6 °F 63% 29.96 in 4.0 mi West 20.7 mph 29.9 mph N/A   Haze
1:55 AM -4.9 °F -24.1 °F -15.2 °F 61% 29.97 in 5.0 mi West 12.7 mph 26.5 mph N/A   Haze
2:15 AM -4.9 °F -28.2 °F -15.3 °F 61% 29.97 in 7.0 mi West 19.6 mph 25.3 mph N/A   Overcast
2:35 AM -5.3 °F -28.1 °F -15.0 °F 63% 29.99 in 3.0 mi West 18.4 mph 33.4 mph N/A   Haze
2:55 AM -5.3 °F -23.7 °F -15.7 °F 61% 30.00 in 5.0 mi WNW 11.5 mph 27.6 mph N/A   Haze
3:15 AM -5.3 °F -23.7 °F -15.7 °F 61% 30.00 in 7.0 mi WNW 11.5 mph 32.2 mph N/A   Overcast
3:35 AM -5.3 °F -27.5 °F -15.5 °F 61% 30.01 in 7.0 mi West 17.3 mph 32.2 mph N/A   Overcast
3:55 AM -5.3 °F -28.1 °F -15.9 °F 60% 30.01 in 10.0 mi West 18.4 mph 31.1 mph N/A   Overcast
4:15 AM -5.4 °F -27.7 °F -16.1 °F 60% 30.03 in 7.0 mi West 17.3 mph 33.4 mph N/A   Overcast
4:35 AM -5.8 °F -29.4 °F -15.9 °F 62% 30.03 in 7.0 mi West 19.6 mph 27.6 mph N/A   Overcast
4:55 AM -5.8 °F -27.5 °F -16.6 °F 60% 30.04 in 10.0 mi West 16.1 mph 32.2 mph N/A   Overcast
5:15 AM -5.6 °F -18.2 °F -16.6 °F 59% 30.05 in 10.0 mi West 5.8 mph 20.7 mph N/A   Overcast
5:35 AM -5.8 °F -22.4 °F -16.8 °F 59% 30.04 in 10.0 mi SW 9.2 mph - N/A   Scattered Clouds
5:55 AM -6.0 °F -14.7 °F -17.0 °F 59% 30.03 in 10.0 mi WSW 3.5 mph 16.1 mph N/A   Scattered Clouds
6:15 AM -6.3 °F -24.1 °F -17.1 °F 60% 30.06 in 10.0 mi West 10.4 mph 16.1 mph N/A   Clear
6:35 AM -6.3 °F -26.7 °F -17.0 °F 60% 30.07 in 10.0 mi WSW 13.8 mph 26.5 mph N/A   Mostly Cloudy
6:55 AM -6.7 °F -27.2 °F -17.3 °F 60% 30.06 in 10.0 mi West 13.8 mph 25.3 mph N/A   Mostly Cloudy
7:15 AM -6.5 °F -17.5 °F -17.3 °F 60% 30.05 in 10.0 mi SE 4.6 mph - N/A   Scattered Clouds
7:35 AM -5.8 °F -21.2 °F -18.2 °F 55% 30.04 in 10.0 mi ESE 8.1 mph - N/A   Clear
7:55 AM -5.4 °F -23.9 °F -17.7 °F 56% 30.08 in 10.0 mi West 11.5 mph 28.8 mph N/A   Clear
8:15 AM -5.8 °F -31.0 °F -17.0 °F 59% 30.11 in 10.0 mi West 23.0 mph 35.7 mph N/A   Clear
8:35 AM -5.8 °F -30.5 °F -16.8 °F 59% 30.14 in 10.0 mi West 21.9 mph 33.4 mph N/A   Scattered Clouds
8:55 AM -5.1 °F -27.2 °F -16.8 °F 57% 30.16 in 10.0 mi West 17.3 mph 31.1 mph N/A   Scattered Clouds
9:15 AM -4.5 °F -25.9 °F -16.2 °F 57% 30.18 in 10.0 mi WNW 16.1 mph 23.0 mph N/A   Scattered Clouds
9:35 AM -3.8 °F -21.0 °F -16.2 °F 55% 30.18 in 10.0 mi NW 10.4 mph 28.8 mph N/A   Scattered Clouds
9:55 AM -2.6 °F -17.3 °F -16.1 °F 53% 30.18 in 10.0 mi SW 8.1 mph 18.4 mph N/A   Clear
10:15 AM -1.3 °F -15.7 °F -15.2 °F 52% 30.20 in 10.0 mi West 8.1 mph 18.4 mph N/A   Clear
10:35 AM -0.8 °F -21.0 °F -14.6 °F 52% 30.21 in 10.0 mi West 16.1 mph 21.9 mph N/A   Clear
10:55 AM -0.0 °F -18.7 °F -14.3 °F 51% 30.22 in 10.0 mi West 13.8 mph 23.0 mph N/A   Clear
11:15 AM 0.5 °F -17.3 °F -13.9 °F 51% 30.21 in 10.0 mi West 12.7 mph 18.4 mph N/A   Clear
11:35 AM 1.9 °F -13.8 °F -12.5 °F 51% 30.22 in 10.0 mi West 10.4 mph 16.1 mph N/A   Clear
11:55 AM 2.3 °F -17.7 °F -13.0 °F 49% 30.22 in 10.0 mi West 17.3 mph - N/A   Clear
12:15 PM 3.9 °F -12.2 °F -13.0 °F 46% 30.18 in 10.0 mi NW 11.5 mph 21.9 mph N/A   Clear
12:35 PM 5.7 °F -10.7 °F -11.9 °F 44% 30.16 in 10.0 mi NW 12.7 mph 18.4 mph N/A   Clear
12:55 PM 5.9 °F -9.7 °F -11.0 °F 46% 30.15 in 10.0 mi NNW 11.5 mph 16.1 mph N/A   Clear
1:15 PM 7.5 °F 0.8 °F -10.8 °F 43% 30.15 in 10.0 mi WNW 3.5 mph - N/A   Clear
1:35 PM 9.0 °F 0.6 °F -9.8 °F 43% 30.14 in 10.0 mi WNW 4.6 mph - N/A   Clear
1:55 PM 9.9 °F -4.0 °F -8.5 °F 43% 30.14 in 10.0 mi West 10.4 mph - N/A   Clear
2:15 PM 10.6 °F -3.8 °F -8.0 °F 43% 30.14 in 10.0 mi West 11.5 mph - N/A   Clear
2:35 PM 10.9 °F -2.6 °F -7.8 °F 43% 30.15 in 10.0 mi West 10.4 mph - N/A   Clear
2:55 PM 11.1 °F -1.6 °F -7.1 °F 44% 30.15 in 10.0 mi West 9.2 mph - N/A   Clear
3:15 PM 10.8 °F -2.0 °F -7.1 °F 45% 30.16 in 10.0 mi West 9.2 mph - N/A   Clear
3:35 PM 11.3 °F -1.3 °F -7.4 °F 43% 30.17 in 10.0 mi West 9.2 mph 18.4 mph N/A   Clear
3:55 PM 11.8 °F -0.7 °F -7.2 °F 42% 30.18 in 10.0 mi WNW 9.2 mph - N/A   Clear
4:15 PM 11.3 °F -2.9 °F -6.3 °F 45% 30.18 in 10.0 mi West 11.5 mph 16.1 mph N/A   Clear
4:35 PM 10.9 °F -2.6 °F -5.8 °F 47% 30.19 in 10.0 mi West 10.4 mph 16.1 mph N/A   Clear
4:55 PM 10.4 °F -4.1 °F -6.2 °F 47% 30.20 in 10.0 mi WNW 11.5 mph - N/A   Clear
5:15 PM 9.7 °F -4.2 °F -6.5 °F 48% 30.21 in 10.0 mi West 10.4 mph 19.6 mph N/A   Clear
5:35 PM 9.1 °F -6.4 °F -7.2 °F 48% 30.21 in 10.0 mi NW 12.7 mph 20.7 mph N/A   Clear
5:55 PM 9.5 °F 1.2 °F -7.6 °F 46% 30.22 in 10.0 mi NW 4.6 mph - N/A   Clear
6:15 PM 10.0 °F 1.8 °F -8.9 °F 42% 30.22 in 10.0 mi NW 4.6 mph - N/A   Clear
6:35 PM 9.9 °F 3.4 °F -8.5 °F 43% 30.21 in 10.0 mi NW 3.5 mph - N/A   Clear
6:55 PM 10.0 °F - -8.9 °F 42% 30.21 in 10.0 mi Calm Calm - N/A   Clear
7:15 PM 10.6 °F 1.0 °F -8.3 °F 42% 30.22 in 10.0 mi NW 5.8 mph - N/A   Clear
7:35 PM 9.5 °F 3.0 °F -7.6 °F 46% 30.23 in 10.0 mi NNW 3.5 mph - N/A   Clear
7:55 PM 11.7 °F 5.5 °F -9.9 °F 37% 30.23 in 10.0 mi WSW 3.5 mph - N/A   Clear
8:15 PM 8.6 °F - -7.2 °F 49% 30.23 in 10.0 mi Calm Calm - N/A   Clear
8:35 PM 8.8 °F - -7.8 °F 47% 30.23 in 10.0 mi Calm Calm - N/A   Clear
8:55 PM 7.5 °F - -4.5 °F 58% 30.24 in 10.0 mi Calm Calm - N/A   Clear
9:15 PM 7.7 °F - -5.1 °F 56% 30.24 in 10.0 mi Calm Calm - N/A   Clear
9:35 PM 7.0 °F - -4.9 °F 58% 30.24 in 10.0 mi Calm Calm - N/A   Clear
9:55 PM 7.5 °F - -5.8 °F 55% 30.25 in 10.0 mi Calm Calm - N/A   Clear
10:15 PM 7.7 °F - -5.8 °F 54% 30.25 in 10.0 mi Calm Calm - N/A   Clear
10:35 PM 9.1 °F - -6.7 °F 49% 30.25 in 10.0 mi Calm Calm - N/A   Clear
10:55 PM 8.8 °F - -6.9 °F 49% 30.24 in 10.0 mi Calm Calm - N/A   Clear
11:15 PM 7.5 °F - -5.8 °F 55% 30.24 in 10.0 mi Calm Calm - N/A   Clear
11:35 PM 8.1 °F - -6.5 °F 52% 30.24 in 10.0 mi Calm Calm - N/A   Clear
11:55 PM 9.3 °F - -8.0 °F 46% 30.24 in 10.0 mi Calm Calm - N/A   Clear